User: anonymous   Login
Location: Unspecified
(0.0000°N, 0.0000°E)
Time: 09:06:39
(UTC+00:00)
Language:

USA 162 - Orbit

View from above orbital plane
View from above orbital plane
View from above satellite
View from above satellite

Ground track
Ground track

The orbit data is extracted from the following two-line orbital elements,

1 26948U 01046A   17079.91572917 0.00000000  00000-0  00000-0 0    08
2 26948   9.1110  55.6910 0010930  35.0430 324.7294  1.00563370    03
Epoch (UTC): 20 March 2017 21:58:39
Eccentricity: 0.0010930
inclination: 9.1110°
perigee height: 35658 km
apogee height: 35750 km
right ascension of ascending node: 55.6910°
argument of perigee: 35.0430°
revolutions per day: 1.00563370
mean anomaly at epoch: 324.7294°
orbit number at epoch: 0

The dashed part of the orbit path shows where the satellite is in the earth's shadow,  

DLR